Showing default

OPS 9345 (IDSCS 23), 3288

Orbit data source: Space-Track

OPS 9345 (IDSCS 23), 3288 is a payload satellite owned by SAMSO (US) in GEO that was launched on Thu, 13 Jun 1968 UTC via a TITAN IIIC launch vehicle from the Air Force Eastern Test Range (AFETR). Payload-class satellites include a variety of spacecraft equipped with specific instruments for various scientific and technological missions. These include communications satellites like Starlink; space stations such as the ISS; scientific satellites like the Hubble; Earth observation satellites from companies like Planet Labs, Umbra, and HawkEye 360; GPS; miniature CubeSats for education and research; and military/defense satellites.

Loading next visibility...
Identifier
3288, 1968-050E
Orbit
GEO
Country
Flag of USUS
Related business
Manufacturer
Philco-Ford
Mission
Non-operational spacecraft
Bus & Motor
IDCSP, Unknown motor
Mass
45 kg wet, 45 kg dry
Launch date (UTC)
1968-06-13 (58 years ago)
Launch vehicle
TITAN IIIC
Launch site
Air Force Eastern Test Range (AFETR)
Object type
Payload
Rocket body
Debris
Shape & HBR
POLY, 1.1 m
Radar Cross Section
Medium (>0.1 m² and <1 m²)

Expand to show TLE details & history
Last TLE update: 1 week ago

TLE from 1 week ago
0 OPS 9345 (IDSCS 23)
1 03288U 68050E   26247.28786624 -.00000084  00000-0  00000-0 0  9997
2 03288   7.2628  52.0112 0035980 146.2405  16.7999  1.07478282140090
Epoch: 2026-09-04T06:54Z
TLE epoch observation values (Epoch: 2026-09-04T06:54:31.643Z)
Latitude
2.11472°
Longitude
128.24592°
Altitude
33,740.716 km
Speed
3.158 km/s
True Right ascension
14h 21m 09s
True Declination
2° 06' 45"
Sunlit
Object was in daylight at epoch
Visualization orbit readout
Latitude
Unknown
Longitude
Unknown
Altitude
Unknown
Speed
Unknown
Apparent Right ascension
Unknown
Apparent Declination
Unknown
Sunlit
N/A
Visualization observer readout
Local Sidereal Time
03:40:41
Azimuth
Unknown
Elevation
Unknown
Doppler factor
Unknown
Orbital elements
Apogee altitude
34,026.04 km
Perigee altitude
33,736.334 km
Semi-major axis
40,259.324 km
Eccentricity
0.0036
Inclination
7.2628°
RAAN
52.0112°
Arg. of periapsis
146.2405°
True anomaly
16.91958°
Mean anomaly
16.7999°
Eccentric anomaly
16.85969°
Mean motion
0.26869 °/min
Orbital period
1,339.86 mins
BSTAR
0
Loading maneuver chart data...
Computing Atmospheric mass density...
Loading historical data...
Loading historical data...
Loading historical data...
Loading historical data...
Loading historical data...
Loading historical data...
Loading historical data...

Documentation

Showing up to 5 results
|